Tracking 20040 objects as of 18-Nov-2019
Live streaming from Space Station
objects crossing your sky now

ARIANE 2 DEB

Track ARIANE 2 DEB now!


NORAD ID: 40783
Int'l Code: 1989-006CC
Perigee: 773.3 km
Apogee: 35,743.6 km
Inclination: 6.6 °
Period: 641.1 minutes
Semi major axis: 24629 km
RCS: Unknown
Launch date: January 27, 1989
Source: France (FR)
Launch site: FRENCH GUIANA (FRGUI)

Note: This is SATELLITE DEBRIS
aabbcc
Your satellite tracking list
Your tracking list is empty




NASA's NSSDC Master Catalog

Two Line Element Set (TLE):
1 40783U 89006CC  19248.45515281 -.00000214  00000-0 -40203-2 0  9990
2 40783   6.6015 168.1605 7099279 301.9296 277.9609  2.24605567112968
Source of the keplerian elements: AFSPC